Regional Weather Roundup
Issued by NWS Pendleton, OR

Home | Current Version | Previous Version | Text Only | Print | Product List | Glossary On
Versions: 1 2 3 4 5 6 7 8 9 10 11 12 13 14 15 16 17 18 19 20 21 22 23 24 25 26 27 28 29 30 31 32 33 34 35 36 37 38 39 40 41 42 43 44 45 46 47 48 49 50
000
ASUS46 KPDT 011225
RWRPDT
PENDLETON REGIONAL WEATHER ROUNDUP
NATIONAL WEATHER SERVICE PENDLETON OREGON
500 AM PDT SAT OCT 1 2016

NOTE: FAIR INDICATES FEW OR NO CLOUDS BELOW 12,000 FEET WITH NO
SIGNIFICANT WEATHER AND/OR OBSTRUCTIONS TO VISIBILITY.

# INDICATES UNOFFICIAL STATION AND DATA

WAZ520-011310-
EAST SLOPES OF WASHINGTON CASCADES

CITY            SKY/WX      TMP DP  RH  WIND    PRES   REMARKS
#CLE ELUM HS    N/A         39  34  82  CALM    29.88S
#CLE ELUM LAKE  N/A         43  35  73  CALM    29.87R
#GLENWOOD       N/A         46  40  79  CALM    29.95S
#MANASTASH CYN  N/A         39  29  67  CALM    29.92S
#NELSON 3SW     N/A         38  34  85  CALM    30.10F
#NILE           N/A         37  33  85  CALM    29.19S
#RONALD 2NW     N/A         40  N/A N/A N1      29.97F
#TEANAWAY 4NE   N/A         38  34  85  CALM    N/A
#TROUT LAKE 1NE N/A         47  41  79  CALM    29.96S
#TROUT LAKE 1E  N/A         47  42  83  CALM    29.94F
$$

WAZ521-011310-
SIMCOE HIGHLANDS

CITY            SKY/WX      TMP DP  RH  WIND    PRES   REMARKS
#CENTERVILLE 1SWN/A         38  33  82  CALM    29.93S
#GOLDENDALE 1NE N/A         42  26  53  CALM    N/A
#GOLDENDALE 4W  N/A         39  39  100 CALM    30.00S
#GOODNOE HILLS  N/A         48  40  74  NW6     N/A
#LYLE 6NE       N/A         49  42  77  CALM    29.93R
$$

WAZ026-011310-
KITTITAS VALLEY

CITY            SKY/WX      TMP DP  RH  WIND    PRES   REMARKS
ELLENSBURG AP   CLEAR       43  35  73  NW6     29.92S
6HR MIN TEMP:   43; 6HR MAX TEMP:   56;

#ELLENSBURG CWU N/A         43  36  76  CALM    29.84S
#ELLENSBURG 3NE N/A         43  37  79  CALM    29.93S
#ELLENSBURG 1E  N/A         41  N/A N/A CALM    N/A
#KITTITAS 4N    N/A         41  32  70  CALM    29.91S
#KITTITAS 3S    N/A         35  32  89  CALM    29.89R
#THORP 6N       N/A         43  38  82  N6      29.91R
$$

WAZ027-011310-
YAKIMA VALLEY

CITY            SKY/WX      TMP DP  RH  WIND    PRES   REMARKS
SUNNYSIDE AP    CLEAR       40  36  85  CALM    29.95S
YAKIMA AIRPORT  CLEAR       43  32  65  W5      29.94S
6HR MIN TEMP:   43; 6HR MAX TEMP:   63;

YAKIMA-VAGABOND CLEAR       44  34  68  SW3     29.91S
6HR MIN TEMP:   42; 6HR MAX TEMP:   59;

#GRANDVIEW      N/A         51  37  59  CALM    29.95S
#MABTON         N/A         54  38  55  W1      29.94S
#NACHES 2SW     N/A         44  36  73  CALM    29.93S
#TERRACE HTS    N/A         48  36  63  CALM    29.88R
#TOPPENISH      N/A         50  39  66  CALM    29.85R
#WEST VALLEY    N/A         43  35  73  CALM    29.89S
#WHITE SWAN 5E  N/A         52  39  61  SW12    29.91F
#WILEY CITY 3W  N/A         42  29  60  CALM    29.90S
$$

WAZ028-011310-
LOWER COLUMBIA BASIN...WASHINGTON

CITY            SKY/WX      TMP DP  RH  WIND    PRES   REMARKS
PASCO           PTCLDY      56  39  53  SW7     29.96R
6HR MIN TEMP:   56; 6HR MAX TEMP:   65; 6HR PCP:  TRACE;

PROSSER AWOS    N/A         50  39  66  CALM    29.98S
RICHLAND AWOS   PTCLDY      57  40  53  S7      29.95R
#BENTON CITY    N/A         51  39  63  NW3     29.84R
#CONNELL 5N     N/A         48  40  74  W3      29.90S
#CONNELL 5NW    N/A         49  40  71  CALM    29.86S
#ELTOPIA 6NW    N/A         53  41  64  CALM    28.90S
#KAHLOTUS       N/A         52  40  63  W20     29.89R
#KENNEWICK 3S   N/A         52  43  71  N5      29.93R
#PATERSON       N/A         54  44  69  N6      29.94S
#SAGEMOOR 2W    N/A         53  40  61  SW7     29.78R
#TOUCHET 2S     N/A         55  41  59  NW2     29.93S
#WEST PASCO     N/A         56  40  55  SW2     29.94R
$$

WAZ029-011310-
FOOTHILLS OF THE BLUES...WASHINGTON

CITY            SKY/WX      TMP DP  RH  WIND    PRES   REMARKS
WALLA WALLA AP  CLOUDY      56  38  51  S12     29.98S
6HR MIN TEMP:   56; 6HR MAX TEMP:   62; 6HR PCP:  TRACE;

#CLYDE 6NW      N/A         51  41  68  S12     29.92R
#LOWDEN 2SE     N/A         56  41  57  W6      29.94R
#PLEASANT VIEW 1N/A         48  39  71  S8      29.94R
#PRESCOTT       N/A         54  42  64  CALM    29.93S
#WHITMAN COLLEGEN/A         56  41  57  S5      30.00S
#WAITSBURG 5S   N/A         51  39  63  S7      30.02S
#WALLA WALLA U  N/A         57  42  57  CALM    29.95F
#WHITMAN MISSIONN/A         57  42  57  CALM    29.97R
$$

WAZ030-011310-
BLUE MOUNTAINS...WASHINGTON

CITY            SKY/WX      TMP DP  RH  WIND    PRES   REMARKS
#DIXIE 5SE      N/A         48  37  65  S7      29.91S
$$

ORZ009-041-WAZ024-011310-
COLUMBIA RIVER GORGE

CITY            SKY/WX      TMP DP  RH  WIND    PRES   REMARKS
HOOD RIVER AP   PTCLDY      46  41  83  SW5     29.99R
THE DALLES AP   CLEAR       49  39  68  E6      29.98S
6HR MIN TEMP:   47; 6HR MAX TEMP:   60;

#ARLINGTON AIRPON/A         50  41  71  W1      29.97R
#CELILO DOT     N/A         51  39  63  S3      N/A
#MOSIER 1S      N/A         51  35  54  SW2     29.97S
#MURDOCK        N/A         51  43  74  E1      29.95R
#RUFUS DOT      N/A         54  42  64  S2      N/A
#SMITHVILLE     N/A         46  41  83  E2      29.93R

$$

ORZ510-011310-
NORTH CENTRAL OREGON

CITY            SKY/WX      TMP DP  RH  WIND    PRES   REMARKS
#ANTELOPE       N/A         35  30  82  N2      29.83S
#CHENOWITH 1W   N/A         47  41  79  W12     N/A    WCI 42
#COW CYN RST AREN/A         42  N/A N/A S3      N/A
#DUFUR 9E       N/A         46  38  73  CALM    30.00S
#GRASS VALLEY 1SN/A         41  35  79  S2      29.93S
#KENT DOT       N/A         38  30  73  N8      N/A
#MAUPIN SCHOOL  N/A         48  37  65  CALM    30.03R
#SHANIKO 5WSW   N/A         41  30  65  N9      N/A
#SHANIKO 4NW    N/A         40  32  73  S6      29.98F
#TYGH VALLEY 2NEN/A         43  36  76  CALM    29.96S
#WAPANITIA AIRPON/A         41  35  79  CALM    29.97R
#WASCO DOT      N/A         43  38  82  CALM    N/A
#WASCO AIRPORT  N/A         45  38  76  SW2     N/A
#WASCO 5NE      N/A         40  36  85  CALM    29.96R
$$

ORZ511-011310-
CENTRAL OREGON

CITY            SKY/WX      TMP DP  RH  WIND    PRES   REMARKS
BEND AIRPORT    MOCLDY      39  32  76  SW7     30.02R
MADRAS AIRPORT  CLEAR       36  30  79  S8      30.02S
PRINEVILLE AP   CLEAR       32  28  85  CALM    30.01S
REDMOND AIRPORT CLEAR       40  30  67  S8      30.01R
6HR MIN TEMP:   32; 6HR MAX TEMP:   48;

#ASHWOOD SCHOOL N/A         38  32  79  S2      29.97S
#BEND-AWBREY    N/A         41  34  76  SE1     29.93S
#BEND-KIM LN    N/A         37  32  82  SW1     29.93R
#CULVER         N/A         39  32  76  CALM    29.90R
#CULVER 8W      N/A         41  34  76  CALM    30.00R
#LAKE BILLY CHINN/A         45  N/A N/A S8      30.08R
#MADRAS 4S      N/A         39  15  37  S12     30.06F WCI 32
#PRINEVILLE 3N  N/A         32  28  85  CALM    29.98R

$$


ORZ509-011310-
EAST SLOPES OF OREGON CASCADES

CITY            SKY/WX      TMP DP  RH  WIND    PRES   REMARKS
#BLUE BOX PASS  N/A         40  N/A N/A S3      N/A
#CAMP SHERMAN   N/A         35  32  89  CALM    30.06R
#LA PINE DOT    N/A         32  30  92  S1      N/A
#LA PINE 4NW    N/A         27  23  85  CALM    30.03S
#LAVA BUTTE DOT N/A         34  31  89  CALM    N/A
#SISTERS AIRPOR N/A         32  31  96  CALM    30.17S
#SISTERS ODOT   N/A         N/A N/A N/A SW1     N/A
#SISTERS 3N     N/A         32  23  69  CALM    30.00S
#SUNRIVER       N/A         31  29  92  CALM    29.98F
#SUTTLE LK DOT  N/A         34  34  100 W13     N/A    WCI 25
#TUMALO 3W      N/A         42  30  62  SW3     29.82S
#WANOGA BUTTE D N/A         33  28  82  W12     N/A    WCI 24

$$

ORZ044-011310-
LOWER COLUMBIA BASIN...OREGON

CITY            SKY/WX      TMP DP  RH  WIND    PRES   REMARKS
HERMISTON       PTCLDY      54  41  61  SW12    29.97S
6HR MIN TEMP:   54; 6HR MAX TEMP:   59; 6HR PCP:  TRACE;

#BOARDMAN SCHOOLN/A         53  41  64  N2      29.97S
#BOARDMAN 8SW   N/A         49  40  71  SW6     29.95S
#ECHO 8SW       N/A         50  40  68  SW1     29.98F
#I-84 EX 198 DOTN/A         51  41  68  E8      N/A
#UMATILLA       N/A         54  40  59  S8      29.89S
$$

ORZ507-011310-
NORTHERN FOOTHILLS OF THE BLUES

CITY            SKY/WX      TMP DP  RH  WIND    PRES   REMARKS
PENDLETON AIRPT CLEAR       49  37  63  SW8     29.98S
6HR MIN TEMP:   49; 6HR MAX TEMP:   58; 6HR PCP:  TRACE;

#ADAMS 3WNW     N/A         46  39  76  CALM    29.96S
#ATHENA         N/A         49  40  71  CALM    29.98S
#CAYUSE         N/A         51  40  66  SW3     29.95S
#HELIX SCHOOL   N/A         47  39  74  N2      29.95S
#HELIX 3N       N/A         46  38  73  S7      29.96R
#HOLDMAN 5SE    N/A         47  39  74  SW3     29.97S
#HOLDMAN 6E     N/A         48  39  71  N10     29.75S
#M-F GROVE ELEM N/A         54  37  52  CALM    29.96S
#M-FREEWATER 5SEN/A         52  39  61  CALM    29.98S
#PENDLETON DNTN N/A         50  34  54  CALM    30.01S
#PDT AQUATIC CTRN/A         50  32  50  CALM    29.99S
#PDT SUNRIDGE   N/A         48  39  71  SE1     30.00S
#PENDLETON 7NW  N/A         52  43  71  CALM    32.46S
#PILOT ROCK 1S  N/A         42  32  67  CALM    30.00S
#PILOT ROCK     N/A         44  37  76  SW1     30.02S
#TUTUILLA       N/A         45  38  76  CALM    29.98S
#UMAPINE 2E     N/A         54  42  64  CALM    29.96S
#WESTON SCHOOL  N/A         50  35  56  NW3     29.87S

$$

ORZ508-011310-
SOUTHERN FOOTHILLS OF THE BLUES

CITY            SKY/WX      TMP DP  RH  WIND    PRES   REMARKS
LEXINGTON       CLEAR       46  36  68  SE5     30.02S
#AJAX           N/A         44  31  60  CALM    27.73F
#CONDON SCHOOL  N/A         41  35  79  CALM    29.95F
#CONDON 5W      N/A         42  34  73  W2      29.95F
#FOSSIL SCHOOL  N/A         36  32  85  CALM    29.95S
#HEPPNER EOC    N/A         47  37  68  CALM    29.89S
#HEPPNER 4NE    N/A         43  36  76  CALM    29.93F
#LEXINGTON 2SE  N/A         46  36  68  CALM    29.95F
#RUGGS 5NE      N/A         40  36  85  NE1     30.14S
#RUGGS 2SW      N/A         43  35  73  SW8     29.96S

$$

ORZ502-503-011310-
BLUE MOUNTAINS

CITY            SKY/WX      TMP DP  RH  WIND    PRES   REMARKS
MEACHAM         MOCLDY      43  33  67  CALM    30.00F
6HR MIN TEMP:   43; 6HR MAX TEMP:   50;

#BATTLE MTN DOT N/A         38  37  96  CALM    N/A
#CUTSFORTH PARK N/A         37  35  92  CALM    29.75F
#GREENHORN 9SW  N/A         39  34  82  CALM    26.20R
#HARDMAN 10S    N/A         35  32  89  CALM    30.03S
#HEPPNER 15SE   N/A         39  34  82  CALM    25.51F
#LADD CREEK ODOTN/A         49  36  61  W3      N/A
#LONG CREEK HS  N/A         41  40  96  SW3     30.00F
#N POWDER DOT   N/A         47  34  60  N12     N/A    WCI 42
#PIKES PEAK     N/A         46  36  68  SW14    27.99S WCI 40
#TOLLGATE       N/A         37  34  89  CALM    29.86F
#TROY SCHOOL    N/A         55  47  74  CALM    29.73S
#UKIAH          N/A         36  34  92  CALM    29.88R
#WESTON 4E      N/A         44  36  73  SE1     29.90S
$$

ORZ505-011310-
JOHN DAY BASIN

CITY            SKY/WX      TMP DP  RH  WIND    PRES   REMARKS
JOHN DAY        CLEAR       44  35  70  W5      30.01R
#DAYVILLE SCHOOLN/A         44  33  65  CALM    29.98R
#MITCHELL       N/A         37  32  82  CALM    30.18R
#MITCHELL 8NW   N/A         44  31  60  CALM    30.13R
#MONUMENT HS    N/A         47  38  71  CALM    29.93S
#MT. VERNON 5SE N/A         42  36  79  CALM    29.96R
#SPRAY SCHOOL   N/A         39  N/A N/A CALM    N/A
$$

ORZ506-011310-
OCHOCO AND JOHN DAY HIGHLANDS

CITY            SKY/WX      TMP DP  RH  WIND    PRES   REMARKS
#BUCK CREEK DOT N/A         44  31  60  SW3     N/A
#HORSE RIDGE DO N/A         22  18  84  NE1     N/A
#PAULINA SCHOOL N/A         40  28  62  CALM    N/A
#PINE MTN OBS   N/A         32  27  82  S3      N/A
#PRAIRIE CITY   N/A         44  36  73  CALM    30.12S
#SENECA         N/A         38  N/A N/A CALM    N/A
#SENECA 9NW     N/A         37  32  82  CALM    29.86R
$$

ORZ049-011310-
GRANDE RONDE VALLEY

CITY            SKY/WX      TMP DP  RH  WIND    PRES   REMARKS
LA GRANDE       MOCLDY      50  30  46  NW17    29.98R
#COVE SCHOOL    N/A         48  37  65  CALM    30.00R
#COVE 6NW       N/A         49  35  58  W2      29.85S
#ELGIN 3N       N/A         51  33  50  CALM    29.96R
#ELGIN 1E       N/A         51  34  52  CALM    N/A
#IMBLER SCHOOL  N/A         48  36  63  CALM    29.94R
#ISLAND CITY 4N N/A         50  48  93  CALM    29.98S
#LADD CYN DOT   N/A         49  36  61  N7      N/A
#UNION 1S       N/A         50  37  61  NW6     29.88R
$$

ORZ050-011310-
WALLOWA COUNTY

CITY            SKY/WX      TMP DP  RH  WIND    PRES   REMARKS
JOSEPH AIRPORT  CLOUDY      46  36  68  CALM    29.99R
#IMNAHA SCHOOL  N/A         62  40  44  S3      29.91R
#IMNAHA 10S     N/A         57  37  47  SW5     29.93S
#JOSEPH 3N      N/A         46  33  60  NW1     30.00R
#JOSEPH 3W      N/A         44  38  79  CALM    29.84R
#LOSTINE        N/A         48  38  68  CALM    29.68R
#LOSTINE 3SE    N/A         47  35  63  CALM    29.98R
#MT HOWARD 8000 N/A         43  29  57  SW3     30.03F
#PROMISE 1S     N/A         45  40  82  CALM    29.94S
#WALLOWA SCHOOL N/A         50  35  56  CALM    29.94R



$$



USA.gov is the U.S. government's official web portal to all federal, state and local government web resources and services.